Regional Weather Roundup
Issued by NWS

Home | Current Version | Previous Version | Text Only | Print | Product List | Glossary On
Versions: 1 2 3 4 5 6 7 8 9 10 11 12 13 14 15 16 17 18 19 20 21 22 23 24 25 26 27 28 29 30 31 32 33 34 35 36 37 38 39 40 41 42 43 44 45 46 47 48 49 50
000
ASPQ40 PGUM 221110
RWRPQ
WEATHER ROUNDUP FOR THE MARIANAS AND MICRONESIA
NATIONAL WEATHER SERVICE TIYAN GU
900 PM CHST TUE OCT 22 2019

GUZ001>004-221200-
MARIANA ISLANDS-

CITY           SKY/WX    TMP DP  RH WIND       PRES   REMARKS
GUAM AIRPORT   CLEAR     81  75  83 CALM      29.85R
ANDERSEN AFB   PTCLDY    79  73  83 S7        29.86R
ROTA AIRPORT   NOT AVBL
TINIAN AP      NOT AVBL
SAIPAN AP      PTCLDY    79  75  89 SW6       29.84R

$$

PMZ161-221200-
REPUBLIC OF PALAU-

CITY           SKY/WX    TMP DP  RH WIND       PRES   REMARKS
KOROR AP       MOCLDY    79  75  89 CALM      29.78R
KOROR WSO      NOT AVBL

$$

PMZ171>174-221200-
FEDERATED STATES OF MICRONESIA-

CITY           SKY/WX    TMP DP  RH WIND       PRES   REMARKS
YAP AIRPORT    MOCLDY    81  77  89 CALM      29.78R
CHUUK AP       MOCLDY    84  79  84 VRB6      29.82R HX  96
POHNPEI AP     NOT AVBL
POHNPEI WSO    LGT RAIN  79  75  89 CALM      29.85S
KOSRAE AP      NOT AVBL

$$

PMZ181-221200-
REPUBLIC OF THE MARSHALL ISLANDS-

CITY           SKY/WX    TMP DP  RH WIND       PRES   REMARKS
KWAJALEIN AP   CLEAR     84  77  79 E3        29.83S HX  94
MAJURO AP      NOT AVBL
MAJURO WSO     MOCLDY    84  75  74 E6        29.81S HX  92

$$




USA.gov is the U.S. government's official web portal to all federal, state and local government web resources and services.